HST 1 20580U 90037B 26237.29946119 .00006055 00000+0 18616-3 0 9995 2 20580 28.4736 327.9629 0001884 178.3948 181.6654 15.31452116799179 POLAR 1 23802U 96013A 26235.81836052 .00000242 00000+0 00000+0 0 9991 2 23802 79.9529 226.2419 6539200 206.7602 94.5021 1.29845821145733 SWAS 1 25560U 98071A 26235.99135765 .00002384 00000+0 15294-3 0 9996 2 25560 69.8951 52.6160 0005075 181.3708 178.7443 15.09968360507501 CXO 1 25867U 99040B 26238.13521419 .00000985 00000+0 00000+0 0 9997 2 25867 57.1028 114.8710 7727577 309.5585 0.6618 0.37795883 17584 XMM-NEWTON 1 25989U 99066A 26239.15795894 .00000172 00000+0 00000+0 0 9991 2 25989 64.1136 282.0687 4655809 63.6237 0.0762 0.50123629 23360 TERRA 1 25994U 99068A 26237.25463350 .00000297 00000+0 69275-4 0 9999 2 25994 97.9403 284.0437 0002864 41.4690 33.1537 14.61148785419691 CLUSTER II-FM7 (SAMBA) 1 26410U 00041A 26228.35648488 .00204628 -13535-2 00000+0 0 9995 2 26410 149.5559 61.8704 9119992 279.7536 359.6603 0.44877167 20578 CLUSTER II-FM8 (TANGO) 1 26464U 00045B 26235.95061241 .00282324 -17355-2 00000+0 0 9991 2 26464 149.6206 64.3903 9130551 282.2349 2.0020 0.44543825 20619 TIMED 1 26998U 01055B 26237.05111350 .00000845 00000+0 80025-4 0 9996 2 26998 74.0662 96.3501 0002308 256.5825 103.5103 14.95420072341118 CORIOLIS 1 27640U 03001A 26236.75921278 .00000094 00000+0 64788-4 0 9992 2 27640 98.7161 242.6060 0014401 20.2254 339.9490 14.19961264223959 SORCE 1 27651U 03004A 26237.06973608 .00002233 00000+0 16906-3 0 9991 2 27651 39.9893 228.5762 0017659 190.7743 169.2675 15.04017630282279 MOST 1 27843U 03031D 26237.27021142 .00000055 00000+0 45286-4 0 9998 2 27843 98.7077 244.0399 0010824 56.8785 303.3430 14.21334418200525 SCISAT 1 1 27858U 03036A 26235.41600759 .00000527 00000+0 71885-4 0 9998 2 27858 73.9297 37.7566 0006080 85.3294 274.8577 14.81515611241402 SWIFT 1 28485U 04047A 26236.72545475 .00079203 00000+0 48076-3 0 9998 2 28485 20.5527 13.4172 0001390 136.3532 223.7025 15.75748648197669 HINODE (SOLAR-B) 1 29479U 06041A 26236.31542845 .00000520 00000+0 97522-4 0 9998 2 29479 98.0556 251.4674 0018845 73.4200 286.9073 14.68699803 64871 SHIJIAN-6 02A (SJ-6 02A) 1 29505U 06046A 26237.27129723 .00003658 00000+0 18537-3 0 9998 2 29505 97.6321 278.8718 0001363 247.1903 112.9186 15.17617439 82744 SHIJIAN-6 02B (SJ-6 02B) 1 29506U 06046B 26237.32312044 .00000278 00000+0 26169-4 0 9991 2 29506 97.7067 265.9328 0015049 186.8260 173.2762 15.01471952 81119 FGRST (GLAST) 1 33053U 08029A 26236.90828603 .00002982 00000+0 10524-3 0 9993 2 33053 25.5823 87.2002 0008535 59.4008 300.7372 15.24249421 6188 SDO 1 36395U 10005A 26236.09944528 -.00000080 00000+0 00000+0 0 9999 2 36395 34.7887 85.3087 0001514 69.8755 111.2433 1.00276276 60740 CRYOSAT 2 1 36508U 10013A 26237.27735410 .00000127 00000+0 30710-4 0 9990 2 36508 92.0314 294.0892 0002694 87.5789 272.5727 14.51900349868103 X-SAT 1 37389U 11015C 26237.23705824 .00000214 00000+0 10823-3 0 9992 2 37389 98.3582 210.9950 0014719 136.1725 224.0626 14.25223941797514 GCOM-W1 (SHIZUKU) 1 38337U 12025A 26237.27236329 .00000357 00000+0 89338-4 0 9997 2 38337 98.2043 176.7867 0001348 89.5539 80.1781 14.57119609759097 NUSTAR 1 38358U 12031A 26237.33335648 .00011495 00000+0 64499-3 0 9993 2 38358 6.0251 235.2339 0006788 56.8287 152.9691 15.09370951 1302 NEOSSAT 1 39089U 13009D 26237.19865215 .00000109 00000+0 52454-4 0 9992 2 39089 98.4216 55.6075 0011855 45.4379 314.7773 14.35847136706648 BRITE-AUSTRIA 1 39091U 13009F 26237.02356840 .00000129 00000+0 58312-4 0 9997 2 39091 98.4036 54.7736 0010937 40.1681 320.0312 14.36565294706937 IRIS 1 39197U 13033A 26237.11940949 .00000866 00000+0 10493-3 0 9995 2 39197 97.9301 76.1787 0025839 93.1154 267.3018 14.86004516710613 HISAKI (SPRINT-A) 1 39253U 13049A 26237.06361135 .00000102 00000+0 47171-4 0 9990 2 39253 29.7189 229.8371 0136687 215.1775 143.9708 13.55549209640770 CASSIOPE 1 39265U 13055A 26237.26880379 .00053294 -11446-6 55226-3 0 9991 2 39265 80.9163 342.5136 0275420 188.5023 171.1503 15.29661577678216 STSAT-3 1 39422U 13066G 26237.28783765 .00002014 00000+0 15376-3 0 9993 2 39422 97.6263 206.0937 0010239 149.3545 210.8280 15.03077836694581 SWARM B 1 39451U 13067A 26237.19247383 .00003071 00000+0 10806-3 0 9994 2 39451 87.7472 321.3658 0003190 101.5602 258.6006 15.28939166693785 SWARM A 1 39452U 13067B 26237.20363450 .00009790 00000+0 17166-3 0 9991 2 39452 87.3315 30.5892 0002420 87.1310 273.0228 15.50392462716945 SWARM C 1 39453U 13067C 26237.20354442 .00009942 00000+0 17433-3 0 9999 2 39453 87.3318 29.1712 0002415 88.1214 272.0324 15.50394049716907 BRITE-CA1 (TORONTO) 1 40020U 14033L 26236.93119230 .00000640 00000+0 10326-3 0 9998 2 40020 97.9822 4.6258 0079590 57.4524 303.4339 14.72789997652334 OCO 2 1 40059U 14035A 26237.23610489 .00000310 00000+0 78840-4 0 9998 2 40059 98.2040 177.4867 0001603 90.6299 269.5084 14.57085759646100 BRITE-PL2 (HEWELIUSZ) 1 40119U 14049B 26237.25873732 .00001959 00000+0 18533-3 0 9996 2 40119 97.9145 349.8198 0012720 236.6897 123.3105 14.94798454651762 MMS 1 1 40482U 15011A 26237.33335648 -.00002168 00000+0 00000+0 0 9997 2 40482 72.8556 347.9588 8276024 168.8625 152.2778 0.28350552 1386 MMS 2 1 40483U 15011B 26237.33335648 -.00002170 00000+0 00000+0 0 9991 2 40483 72.8643 347.9568 8279048 168.8640 152.2632 0.28350917 1382 MMS 3 1 40484U 15011C 26237.33335648 -.00002169 00000+0 00000+0 0 9990 2 40484 72.8594 347.9697 8277224 168.8726 152.2330 0.28350527 1382 MMS 4 1 40485U 15011D 26237.33335648 -.00002169 00000+0 00000+0 0 9991 2 40485 72.8539 347.9535 8277253 168.8824 152.2305 0.28350491 1386 ASTROSAT 1 40930U 15052A 26237.31333499 .00001551 00000+0 10662-3 0 9993 2 40930 5.9985 17.7422 0008529 300.5531 59.3755 14.82612569590101 DAMPE 1 41173U 15078A 26237.32414932 .00001416 00000+0 49906-4 0 9998 2 41173 97.4594 243.1488 0011514 182.1707 177.9486 15.30937339595121 PISAT 1 41784U 16059B 26236.93796993 .00000826 00000+0 14778-3 0 9994 2 41784 97.8228 234.4549 0028694 348.9855 11.0720 14.69094051529831 HXMT (HUIYAN) 1 42758U 17034A 26237.19026311 .00003997 00000+0 19655-3 0 9990 2 42758 43.0142 158.6596 0032347 224.8549 134.9685 15.18974657508153 FLYING LAPTOP 1 42831U 17042G 26237.30040620 .00001735 00000+0 13833-3 0 9993 2 42831 97.4959 30.3212 0016095 252.7830 107.1634 15.01504733496822 ZHANGHENG 1-01 (CSES-1) 1 43194U 18015C 26237.28887323 .00006068 00000+0 27556-3 0 9994 2 43194 97.6931 44.3485 0016360 31.7320 328.4897 15.21054586475147 SALSAT 1 46495U 20068K 26237.26336136 .00007111 00000+0 24232-3 0 9999 2 46495 97.8877 244.5903 0011121 65.4484 294.7913 15.30667520325921 IXPE 1 49954U 21121A 26237.33335648 .00011080 00000+0 59236-3 0 9990 2 49954 0.2298 153.8949 0006586 46.4310 46.3190 15.10807571 5751 SMILE 1 69123U 26109A 26232.83835195 .00000724 00000+0 00000+0 0 9997 2 69123 70.0346 206.3624 8229755 286.2672 0.0372 0.47505607 238